Location: Rockford
(42.2710°N, 89.0940°W)
Time: 19:12:33
(UTC-05:00)

Daily predictions for brighter satellites

Satellite Brightness Start Highest point End
(mag) Time Altitude Azimuth Time Altitude Azimuth Time Altitude Azimuth
USA 238 DEB 3.8 19:08:10 10° SSW 19:15:14 89° ESE 19:22:19 10° NE
USA 238 3.8 19:08:15 10° SSW 19:15:19 88° SE 19:22:25 10° NE
Cosmos 1484 Rocket 3.1 19:15:13 10° S 19:19:00 70° W 19:22:53 10° NNW
SL-19 R/B 4.4 19:13:49 10° SSE 19:19:25 88° ENE 19:25:21 10° NNW
Atlas Centaur 2 4.2 19:13:16 10° WSW 19:20:43 34° S 19:27:43 10° SE
ATLAS CENTAUR R/B 1.3 19:18:35 10° NNW 19:22:52 82° NE 19:26:47 10° SE
BREEZE-M DEB (TANK) 4.2 19:20:25 10° WNW 19:23:39 55° SSW 19:33:18 10° SE
ALOS 3.2 19:27:47 10° SE 19:31:43 28° ENE 19:35:41 10° N
Cosmos 1437 2.8 19:31:00 10° NNW 19:34:16 82° W 19:37:32 10° S
Cosmos 1766 3.2 19:34:30 10° S 19:38:23 63° E 19:42:20 10° NNE
FREGAT/IRIS 2.6 19:36:12 10° SSE 19:39:17 88° ENE 19:42:24 10° N
Spot 2 Rocket 3.5 19:34:35 10° SSE 19:39:33 62° ENE 19:44:32 10° N
Cosmos 2237 Rocket 3.0 19:34:13 10° SW 19:39:48 57° WNW 19:45:25 10° NNE
Cosmos 2056 Rocket 3.6 19:35:37 10° NNW 19:41:05 88° WSW 19:46:30 10° SSE
NOAA 12 4.2 19:36:59 10° SSE 19:42:14 85° WSW 19:47:33 10° NNW
OAO 3 Rocket 4.3 19:38:46 10° SW 19:42:54 30° SSE 19:46:05 15° ESE
COSMO-SKYMED 1 4.2 19:40:34 10° N 19:44:37 39° WNW 19:48:39 10° SW
NOSS 3-2 (C) 3.6 19:41:29 10° SSW 19:47:20 53° ESE 19:53:41 10° NE
Helios 1A 3.0 19:43:29 10° SSE 19:47:37 63° ENE 19:51:46 10° N
CZ-4C R/B 3.1 19:43:21 10° SW 19:48:34 52° NW 19:54:30 10° NNE
CENTAUR R/B 4.2 19:48:22 10° SE 19:48:52 11° SE 19:48:52 11° SE
ATLAS 5 CENTAUR R/B 2.2 19:47:08 10° S 19:51:33 40° ESE 19:56:19 10° NE
ASTEX 1 4.1 19:47:31 10° NNE 19:51:51 30° E 19:56:09 10° SSE
CZ-2D R/B 4.0 19:52:08 17° SE 19:54:30 33° ENE 19:58:02 10° N
Cosmos 1953 2.6 19:51:04 10° SSE 19:54:51 43° E 19:58:39 10° NNE
SL-16 R/B 2.2 19:52:38 10° SSW 19:58:19 89° WNW 20:04:03 10° NNE
Aureole 2 Rocket 3.2 19:56:00 10° SSW 20:00:24 76° WNW 20:04:44 10° NNE
Cosmos 2034 Rocket 4.0 19:57:00 10° S 20:03:10 66° E 20:09:27 10° NNE
Cosmos 1464 Rocket 4.0 20:00:06 10° S 20:06:22 87° W 20:12:37 10° N
Cosmos 1766 Rocket 3.4 20:02:09 10° N 20:06:34 80° E 20:10:54 10° S
Cosmos 1805 3.1 20:07:58 10° S 20:11:52 70° E 20:15:48 10° NNE
HJ-1C 4.4 20:09:04 10° S 20:12:18 48° W 20:15:36 10° NNW
Cosmos 724 4.4 20:08:22 10° S 20:14:02 51° ESE 20:19:53 10° NE
H-2A R/B 2.8 20:12:11 26° SE 20:14:11 55° ENE 20:18:01 10° N
Meteor 1-29 3.3 20:13:10 10° N 20:16:41 70° WNW 20:20:09 10° SSW
USA 215 3.4 20:16:55 10° NE 20:23:26 73° NW 20:29:56 10° WSW
Cosmos 1544 2.9 20:23:46 10° S 20:27:29 72° E 20:31:14 10° NNE
Cosmos 1346 3.6 20:24:43 10° N 20:27:00 46° NNE 20:27:00 46° NNE
FENGYUN 3A 3.7 20:26:19 10° SSE 20:31:41 82° WSW 20:37:07 10° NNW
Cosmos 1470 4.3 20:34:27 22° NNE 20:34:27 22° NNE 20:36:04 10° NNE
Cosmos-2242 3.2 20:28:33 10° SSW 20:32:54 75° W 20:37:19 10° N
ERS-1 Rocket 3.5 20:34:40 36° ENE 20:34:46 36° ENE 20:39:21 10° N
Cosmos 1758 3.9 20:31:37 10° SSW 20:35:38 58° W 20:39:42 10° N
Helios 1B rocket 3.9 20:31:52 10° N 20:35:42 38° WNW 20:39:31 10° SW
Cosmos 1452 Rocket 3.8 20:32:38 10° NNW 20:37:51 65° WSW 20:41:52 17° S
Cosmos 1842 Rocket 3.5 20:39:26 59° E 20:39:26 59° E 20:43:33 10° NNE
Cosmos 1500 Rocket 3.5 20:36:55 10° N 20:41:20 67° E 20:41:43 63° ESE
SeaSat 1 2.3 20:37:00 10° NNE 20:41:57 71° ESE 20:46:52 10° SSW
Cosmos 2369 Rocket 2.7 20:37:50 10° N 20:43:09 40° ENE 20:43:36 39° ENE
Cosmos 1603 3.6 20:39:38 10° SSW 20:45:22 85° ESE 20:51:10 10° NNE
Resurs 01 Rocket 3.7 20:42:32 10° SSW 20:46:19 27° W 20:50:08 10° NW
Cosmos 2151 4.3 20:49:04 10° N 20:51:24 29° NNE 20:51:24 29° NNE
Cosmos 1943 Rocket 3.6 20:50:00 10° N 20:53:53 23° NE 20:53:53 23° NE
Cosmos 1939 Rocket 4.4 21:00:35 27° NNE 21:00:35 27° NNE 21:02:36 10° N
Cosmos 1420 Rocket 4.1 20:56:38 10° NNW 21:01:55 72° WSW 21:03:18 49° S
Cosmos 1674 3.6 21:04:05 10° NNW 21:07:21 49° WNW 21:07:21 49° WNW
ALOS 4.0 21:04:56 10° SSW 21:09:04 31° W 21:13:13 10° NNW
Atlas Centaur 2 4.4 21:03:36 10° WSW 21:09:24 21° SSW 21:11:38 19° S
Cosmos 1655 Rocket 4.0 21:06:44 10° N 21:12:38 61° ENE 21:12:38 61° ENE
Cosmos 1269 Rocket 4.4 21:09:42 10° SSW 21:14:56 62° WNW 21:20:11 10° NNE
GP-B 3.6 21:12:45 10° N 21:16:39 57° NW 21:16:39 57° NW
H-2A R/B 4.5 21:24:26 10° NNE 21:24:26 10° NNE 21:24:31 10° NNE
Cosmos 1048 Rocket 4.4 21:16:24 10° SSW 21:21:40 64° WNW 21:26:54 10° NNE
Cosmos 1092 Rocket 4.4 21:16:33 10° NNW 21:22:38 58° W 21:25:37 30° SSW
Envisat 3.4 21:30:15 57° NNW 21:30:15 57° NNW 21:34:20 10° NNW
ATLAS 5 CENTAUR R/B 3.6 21:31:59 10° WSW 21:36:20 31° NW 21:41:02 10° NNE
Cosmos 1634 Rocket 4.4 21:33:47 27° SSW 21:37:14 61° W 21:43:24 10° N
Cosmos 2026 Rocket 4.0 21:33:21 10° N 21:39:13 75° WNW 21:39:13 75° WNW
CENTAUR R/B 4.2 21:34:44 10° SSW 21:47:41 10° NE 21:36:16 19° SSW
UNK 4.5 21:30:06 10° WNW 21:46:46 61° N 21:47:08 60° NNE
H-2A R/B 4.4 21:51:48 20° NNW 21:51:48 20° NNW 21:53:14 10° NNW
Cosmos 2369 Rocket 4.0 22:22:07 10° NW 22:25:24 26° WNW 22:25:24 26° WNW
Cosmos 1943 Rocket 4.1 22:33:05 10° NNW 22:35:24 25° NW 22:35:24 25° NW
